Weather History for Versailles, OH

Change the Weather History Date:

Sunday, November 10, 2013

  Actual Average (KDAY) Record (KDAY)
Temperature  
Mean Temperature 38 °F 45 °F  
Max Temperature 46 °F 54 °F 71 °F (2002)
Min Temperature 30 °F 37 °F 18 °F (1991)
Degree Days  
Heating Degree Days 27 20  
Month to date heating degree days 179  
Since 1 July heating degree days 626  
Cooling Degree Days 0 0  
Month to date cooling degree days 0  
Year to date cooling degree days 891  
Moisture  
Dew Point 32 °F    
Average Humidity 74    
Maximum Humidity 100    
Minimum Humidity 53    
Precipitation  
Precipitation 0.00 in 0.10 in 2.05 in (1985)
Month to date precipitation 1.05  
Year to date precipitation 35.59  
Snow  
Snow 0.00 in 0.00 in 0.20 in (1960)
Month to date snowfall 0.1  
Since 1 July snowfall 0.5  
Since 1 September snowfall 0.5  
Snow Depth -    
Sea Level Pressure  
Sea Level Pressure 30.23 in    
Wind  
Wind Speed 11 mph (WNW)    
Max Wind Speed 18 mph    
Max Gust Speed 28 mph    
Visibility 10 miles    
Events      
T = Trace of Precipitation, MM = Missing Value Source: NWS Daily Summary

Daily Weather History Graph

Daily Weather History Graph

Search for Another Location

Airport:

Trip Planner

Search our weather history database for the weather conditions in past years. The results will help you decide how hot, cold, wet, or windy it might be!

Date:

Astronomy

Nov. 10, 2013 Rise Set
Actual Time 7:18 AM EST 5:25 PM EST
Civil Twilight 6:49 AM EST 5:54 PM EST
Nautical Twilight 6:16 AM EST 6:26 PM EST
Astronomical Twilight 5:44 AM EST 6:58 PM EST
Moon 1:30 PM EST (11/10) No Moon Set
Length of Visible Light 11h 04m
Length of Day
10h 07m
First Quarter, 55% of the Moon is Illuminated
Nov 10
First Quarter
Nov 17
Full
Nov 25
Last Quarter
Dec 2
New
Dec 9
First Quarter

Hourly Weather History & Observations

Time (EST) Temp. Windchill Dew Point Humidity Pressure Visibility Wind Dir Wind Speed Gust Speed Precip Events Conditions
12:15 AM 44.6 °F 39.2 °F 37.4 °F 76% 30.05 in 10.0 mi West 10.4 mph - N/A   Clear
12:35 AM 44.6 °F 38.8 °F 35.6 °F 71% 30.06 in 10.0 mi West 11.5 mph - N/A   Clear
12:55 AM 44.6 °F 38.4 °F 35.6 °F 71% 30.06 in 10.0 mi West 12.7 mph - N/A   Clear
1:15 AM 44.6 °F 38.4 °F 35.6 °F 71% 30.06 in 10.0 mi West 12.7 mph - N/A   Clear
1:35 AM 42.8 °F 37.0 °F 35.6 °F 76% 30.06 in 10.0 mi West 10.4 mph 16.1 mph N/A   Clear
1:55 AM 42.8 °F 37.5 °F 35.6 °F 76% 30.07 in 10.0 mi West 9.2 mph - N/A   Clear
2:15 AM 42.8 °F 37.5 °F 35.6 °F 76% 30.07 in 10.0 mi West 9.2 mph - N/A   Clear
2:35 AM 42.8 °F 37.0 °F 35.6 °F 76% 30.07 in 10.0 mi West 10.4 mph - N/A   Clear
2:55 AM 42.8 °F 36.2 °F 35.6 °F 76% 30.07 in 10.0 mi West 12.7 mph 17.3 mph N/A   Clear
3:15 AM 42.8 °F 35.4 °F 35.6 °F 76% 30.07 in 10.0 mi West 15.0 mph 19.6 mph N/A   Clear
3:35 AM 42.8 °F 35.1 °F 35.6 °F 76% 30.08 in 10.0 mi West 16.1 mph 25.3 mph N/A   Clear
3:55 AM 42.8 °F 35.1 °F 35.6 °F 76% 30.08 in 10.0 mi West 16.1 mph 26.5 mph N/A   Mostly Cloudy
4:15 AM 42.8 °F 35.1 °F 35.6 °F 76% 30.09 in 10.0 mi West 16.1 mph 21.9 mph N/A   Overcast
4:35 AM 41.0 °F 33.5 °F 35.6 °F 81% 30.09 in 10.0 mi West 13.8 mph 20.7 mph N/A   Scattered Clouds
4:55 AM 41.0 °F 33.5 °F 33.8 °F 76% 30.10 in 10.0 mi West 13.8 mph 20.7 mph N/A   Clear
5:15 AM 39.2 °F 31.2 °F 33.8 °F 81% 30.12 in 10.0 mi West 13.8 mph 20.7 mph N/A   Clear
5:35 AM 37.4 °F 27.5 °F 30.2 °F 75% 30.13 in 10.0 mi WNW 18.4 mph 27.6 mph N/A   Clear
5:55 AM 37.4 °F 27.5 °F 28.4 °F 70% 30.14 in 10.0 mi WNW 18.4 mph 24.2 mph N/A   Clear
6:15 AM 37.4 °F 27.5 °F 28.4 °F 70% 30.15 in 10.0 mi WNW 18.4 mph 25.3 mph N/A   Clear
6:35 AM 35.6 °F 27.5 °F 28.4 °F 75% 30.16 in 10.0 mi WNW 11.5 mph - N/A   Clear
6:55 AM 35.6 °F 28.0 °F 28.4 °F 75% 30.17 in 10.0 mi WNW 10.4 mph 16.1 mph N/A   Mostly Cloudy
7:15 AM 35.6 °F 28.0 °F 30.2 °F 81% 30.18 in 10.0 mi West 10.4 mph - N/A   Mostly Cloudy
7:35 AM 35.6 °F 28.0 °F 30.2 °F 81% 30.19 in 10.0 mi West 10.4 mph - N/A   Clear
7:55 AM 35.6 °F 28.0 °F 30.2 °F 81% 30.20 in 10.0 mi West 10.4 mph - N/A   Clear
8:15 AM 35.6 °F 27.5 °F 30.2 °F 81% 30.21 in 10.0 mi West 11.5 mph 19.6 mph N/A   Clear
8:35 AM 37.4 °F 29.8 °F 30.2 °F 75% 30.22 in 10.0 mi West 11.5 mph 16.1 mph N/A   Clear
8:55 AM 37.4 °F 29.3 °F 30.2 °F 75% 30.23 in 10.0 mi WNW 12.7 mph 17.3 mph N/A   Clear
9:15 AM 37.4 °F 29.3 °F 30.2 °F 75% 30.25 in 10.0 mi WNW 12.7 mph 19.6 mph N/A   Clear
9:35 AM 39.2 °F 31.6 °F 30.2 °F 70% 30.25 in 10.0 mi WNW 12.7 mph 19.6 mph N/A   Clear
9:55 AM 39.2 °F 29.8 °F 30.2 °F 70% 30.26 in 10.0 mi WNW 18.4 mph 23.0 mph N/A   Scattered Clouds
10:15 AM 41.0 °F 32.8 °F 30.2 °F 65% 30.27 in 10.0 mi WNW 16.1 mph - N/A   Scattered Clouds
10:35 AM 41.0 °F 33.5 °F 32.0 °F 70% 30.27 in 10.0 mi NW 13.8 mph 21.9 mph N/A   Scattered Clouds
10:55 AM 41.0 °F 34.3 °F 30.2 °F 65% 30.28 in 10.0 mi NW 11.5 mph 23.0 mph N/A   Clear
11:15 AM 42.8 °F 35.4 °F 30.2 °F 61% 30.28 in 10.0 mi NW 15.0 mph 20.7 mph N/A   Clear
11:35 AM 42.8 °F 35.4 °F 30.2 °F 61% 30.28 in 10.0 mi NW 15.0 mph - N/A   Clear
11:55 AM 44.6 °F 37.4 °F 32.0 °F 61% 30.28 in 10.0 mi NW 16.1 mph 20.7 mph N/A   Clear
12:15 PM 44.6 °F 36.9 °F 30.2 °F 57% 30.29 in 10.0 mi NW 18.4 mph - N/A   Scattered Clouds
12:35 PM 44.6 °F 37.4 °F 30.2 °F 57% 30.28 in 10.0 mi NNW 16.1 mph 23.0 mph N/A   Mostly Cloudy
12:55 PM 44.6 °F 37.4 °F 30.2 °F 57% 30.28 in 10.0 mi WNW 16.1 mph 20.7 mph N/A   Scattered Clouds
1:15 PM 44.6 °F 37.8 °F 30.2 °F 57% 30.27 in 10.0 mi WNW 15.0 mph - N/A   Mostly Cloudy
1:35 PM 44.6 °F 38.4 °F 30.2 °F 57% 30.28 in 10.0 mi WNW 12.7 mph 17.3 mph N/A   Overcast
1:55 PM 46.4 °F 41.5 °F 30.2 °F 53% 30.28 in 10.0 mi WNW 10.4 mph - N/A   Overcast
2:15 PM 44.6 °F 39.2 °F 32.0 °F 61% 30.28 in 10.0 mi NW 10.4 mph - N/A   Overcast
2:35 PM 46.4 °F 41.9 °F 32.0 °F 57% 30.28 in 10.0 mi NW 9.2 mph - N/A   Mostly Cloudy
2:55 PM 44.6 °F 38.8 °F 32.0 °F 61% 30.28 in 10.0 mi NNW 11.5 mph - N/A   Scattered Clouds
3:15 PM 46.4 °F 41.9 °F 32.0 °F 57% 30.29 in 10.0 mi NW 9.2 mph - N/A   Mostly Cloudy
3:35 PM 44.6 °F 38.8 °F 30.2 °F 57% 30.29 in 10.0 mi WNW 11.5 mph 16.1 mph N/A   Scattered Clouds
3:55 PM 44.6 °F 40.2 °F 30.2 °F 57% 30.29 in 10.0 mi WNW 8.1 mph - N/A   Scattered Clouds
4:15 PM 44.6 °F 39.2 °F 30.2 °F 57% 30.30 in 10.0 mi WNW 10.4 mph - N/A   Scattered Clouds
4:35 PM 44.6 °F 39.7 °F 30.2 °F 57% 30.30 in 10.0 mi WNW 9.2 mph - N/A   Clear
4:55 PM 42.8 °F 39.3 °F 32.0 °F 66% 30.31 in 10.0 mi WNW 5.8 mph - N/A   Clear
5:15 PM 42.8 °F 39.3 °F 32.0 °F 66% 30.31 in 10.0 mi WNW 5.8 mph - N/A   Clear
5:35 PM 41.0 °F 37.1 °F 32.0 °F 70% 30.31 in 10.0 mi WNW 5.8 mph - N/A   Clear
5:55 PM 37.4 °F 32.8 °F 30.2 °F 75% 30.31 in 10.0 mi West 5.8 mph - N/A   Clear
6:15 PM 37.4 °F 32.8 °F 30.2 °F 75% 30.32 in 10.0 mi West 5.8 mph - N/A   Clear
6:35 PM 37.4 °F 32.8 °F 30.2 °F 75% 30.32 in 10.0 mi West 5.8 mph - N/A   Clear
6:55 PM 35.6 °F 32.8 °F 30.2 °F 81% 30.33 in 10.0 mi West 3.5 mph - N/A   Clear
7:15 PM 35.6 °F 31.7 °F 30.2 °F 81% 30.32 in 10.0 mi WSW 4.6 mph - N/A   Clear
7:35 PM 35.6 °F - 30.2 °F 81% 30.32 in 10.0 mi Calm Calm - N/A   Clear
7:55 PM 33.8 °F 30.8 °F 30.2 °F 87% 30.32 in 7.0 mi WSW 3.5 mph - N/A   Clear
8:15 PM 33.8 °F - 32.0 °F 93% 30.32 in 10.0 mi Calm Calm - N/A   Clear
8:35 PM 33.8 °F - 30.2 °F 87% 30.31 in 10.0 mi Calm Calm - N/A   Clear
8:55 PM 32.0 °F 28.7 °F 30.2 °F 93% 30.33 in 10.0 mi WSW 3.5 mph - N/A   Clear
9:15 PM 32.0 °F 28.7 °F 32.0 °F 100% 30.32 in 10.0 mi WSW 3.5 mph - N/A   Clear
9:35 PM 32.0 °F 28.7 °F 30.2 °F 93% 30.32 in 10.0 mi SW 3.5 mph - N/A   Clear
9:55 PM 32.0 °F 28.7 °F 30.2 °F 93% 30.32 in 10.0 mi WSW 3.5 mph - N/A   Clear
10:15 PM 32.0 °F - 30.2 °F 93% 30.31 in 10.0 mi Calm Calm - N/A   Clear
10:35 PM 32.0 °F - 30.2 °F 93% 30.31 in 10.0 mi Calm Calm - N/A   Clear
10:55 PM 30.2 °F 25.4 °F 28.4 °F 93% 30.29 in 10.0 mi South 4.6 mph - N/A   Clear
11:15 PM 32.0 °F 28.7 °F 30.2 °F 93% 30.28 in 10.0 mi South 3.5 mph - N/A   Clear
11:35 PM 32.0 °F - 30.2 °F 93% 30.29 in 10.0 mi Calm Calm - N/A   Clear
11:55 PM 30.2 °F 26.7 °F 28.4 °F 93% 30.29 in 10.0 mi SSW 3.5 mph - N/A   Clear